Year,Month,Day,Hour,Minute,Value (Times are PST for temperature in C)
2018,04,26,00,00,11.10
2018,04,26,00,01,11.20
2018,04,26,00,02,11.30
2018,04,26,00,03,11.30
2018,04,26,00,04,11.40
2018,04,26,00,05,11.60
2018,04,26,00,06,11.60
2018,04,26,00,07,11.70
2018,04,26,00,08,11.80
2018,04,26,00,09,11.80
2018,04,26,00,10,11.80
2018,04,26,00,11,11.80
2018,04,26,00,12,11.80
2018,04,26,00,13,11.90
2018,04,26,00,14,11.90
2018,04,26,00,15,11.90
2018,04,26,00,16,11.90
2018,04,26,00,17,11.90
2018,04,26,00,18,11.90
2018,04,26,00,19,11.90
2018,04,26,00,20,11.90
2018,04,26,00,21,11.90
2018,04,26,00,22,11.90
2018,04,26,00,23,11.90
2018,04,26,00,24,11.80
2018,04,26,00,25,11.80
2018,04,26,00,26,11.80
2018,04,26,00,27,11.80
2018,04,26,00,28,11.80
2018,04,26,00,29,11.80
2018,04,26,00,30,11.80
2018,04,26,00,31,11.70
2018,04,26,00,32,11.70
2018,04,26,00,33,11.60
2018,04,26,00,34,11.50
2018,04,26,00,35,11.40
2018,04,26,00,36,11.30
2018,04,26,00,37,11.20
2018,04,26,00,38,11.10
2018,04,26,00,39,11.00
2018,04,26,00,40,10.90
2018,04,26,00,41,10.90
2018,04,26,00,42,10.80
2018,04,26,00,43,10.80
2018,04,26,00,44,10.70
2018,04,26,00,45,10.60
2018,04,26,00,46,10.60
2018,04,26,00,47,10.50
2018,04,26,00,48,10.40
2018,04,26,00,49,10.40
2018,04,26,00,50,10.30
2018,04,26,00,51,10.30
2018,04,26,00,52,10.30
2018,04,26,00,53,10.20
2018,04,26,00,54,10.20
2018,04,26,00,55,10.10
2018,04,26,00,56,10.10
2018,04,26,00,57,10.10
2018,04,26,00,58,10.10
2018,04,26,00,59,10.10
2018,04,26,01,00,10.00
2018,04,26,01,01,10.00
2018,04,26,01,02,10.00
2018,04,26,01,03,10.00
2018,04,26,01,04,9.90
2018,04,26,01,05,9.90
2018,04,26,01,06,9.90
2018,04,26,01,07,9.90
2018,04,26,01,08,9.90
2018,04,26,01,09,10.00
2018,04,26,01,10,10.00
2018,04,26,01,11,10.10
2018,04,26,01,12,10.20
2018,04,26,01,13,10.30
2018,04,26,01,14,10.40
2018,04,26,01,15,10.40
2018,04,26,01,16,10.40
2018,04,26,01,17,10.40
2018,04,26,01,18,10.40
2018,04,26,01,19,10.40
2018,04,26,01,20,10.30
2018,04,26,01,21,10.30
2018,04,26,01,22,10.20
2018,04,26,01,23,10.20
2018,04,26,01,24,10.10
2018,04,26,01,25,10.00
2018,04,26,01,26,10.00
2018,04,26,01,27,10.00
2018,04,26,01,28,10.00
2018,04,26,01,29,9.90
2018,04,26,01,30,9.90
2018,04,26,01,31,9.90
2018,04,26,01,32,9.90
2018,04,26,01,33,9.90
2018,04,26,01,34,9.80
2018,04,26,01,35,9.80
2018,04,26,01,36,9.80
2018,04,26,01,37,9.80
2018,04,26,01,38,9.80
2018,04,26,01,39,9.70
2018,04,26,01,40,9.70
2018,04,26,01,41,9.70
2018,04,26,01,42,9.70
2018,04,26,01,43,9.60
2018,04,26,01,44,9.60
2018,04,26,01,45,9.50
2018,04,26,01,46,9.50
2018,04,26,01,47,9.50
2018,04,26,01,48,9.50
2018,04,26,01,49,9.40
2018,04,26,01,50,9.40
2018,04,26,01,51,9.40
2018,04,26,01,52,9.30
2018,04,26,01,53,9.30
2018,04,26,01,54,9.30
2018,04,26,01,55,9.20
2018,04,26,01,56,9.20
2018,04,26,01,57,9.20
2018,04,26,01,58,9.20
2018,04,26,01,59,9.20
2018,04,26,02,00,9.10
2018,04,26,02,01,9.10
2018,04,26,02,02,9.10
2018,04,26,02,03,9.10
2018,04,26,02,04,9.10
2018,04,26,02,05,9.10
2018,04,26,02,06,9.10
2018,04,26,02,07,9.10
2018,04,26,02,08,9.10
2018,04,26,02,09,9.10
2018,04,26,02,10,9.10
2018,04,26,02,11,9.10
2018,04,26,02,12,9.20
2018,04,26,02,13,9.20
2018,04,26,02,14,9.20
2018,04,26,02,15,9.20
2018,04,26,02,16,9.20
2018,04,26,02,17,9.20
2018,04,26,02,18,9.20
2018,04,26,02,19,9.20
2018,04,26,02,20,9.30
2018,04,26,02,21,9.30
2018,04,26,02,22,9.30
2018,04,26,02,23,9.30
2018,04,26,02,24,9.40
2018,04,26,02,25,9.40
2018,04,26,02,26,9.40
2018,04,26,02,27,9.30
2018,04,26,02,28,9.30
2018,04,26,02,29,9.30
2018,04,26,02,30,9.30
2018,04,26,02,31,9.30
2018,04,26,02,32,9.30
2018,04,26,02,33,9.20
2018,04,26,02,34,9.20
2018,04,26,02,35,9.20
2018,04,26,02,36,9.10
2018,04,26,02,37,9.10
2018,04,26,02,38,9.10
2018,04,26,02,39,9.10
2018,04,26,02,40,9.10
2018,04,26,02,41,9.00
2018,04,26,02,42,9.00
2018,04,26,02,43,9.00
2018,04,26,02,44,9.00
2018,04,26,02,45,8.90
2018,04,26,02,46,8.90
2018,04,26,02,47,8.90
2018,04,26,02,48,8.80
2018,04,26,02,49,8.80
2018,04,26,02,50,8.80
2018,04,26,02,51,8.80
2018,04,26,02,52,8.80
2018,04,26,02,53,8.70
2018,04,26,02,54,8.70
2018,04,26,02,55,8.70
2018,04,26,02,56,8.70
2018,04,26,02,57,8.70
2018,04,26,02,58,8.60
2018,04,26,02,59,8.60
2018,04,26,03,00,8.60
2018,04,26,03,01,8.60
2018,04,26,03,02,8.60
2018,04,26,03,03,8.60
2018,04,26,03,04,8.60
2018,04,26,03,05,8.50
2018,04,26,03,06,8.50
2018,04,26,03,07,8.50
2018,04,26,03,08,8.50
2018,04,26,03,09,8.40
2018,04,26,03,10,8.40
2018,04,26,03,11,8.40
2018,04,26,03,12,8.40
2018,04,26,03,13,8.40
2018,04,26,03,14,8.40
2018,04,26,03,15,8.40
2018,04,26,03,16,8.40
2018,04,26,03,17,8.40
2018,04,26,03,18,8.40
2018,04,26,03,19,8.50
2018,04,26,03,20,8.50
2018,04,26,03,21,8.50
2018,04,26,03,22,8.50
2018,04,26,03,23,8.50
2018,04,26,03,24,8.50
2018,04,26,03,25,8.60
2018,04,26,03,26,8.60
2018,04,26,03,27,8.60
2018,04,26,03,28,8.60
2018,04,26,03,29,8.60
2018,04,26,03,30,8.60
2018,04,26,03,31,8.60
2018,04,26,03,32,8.60
2018,04,26,03,33,8.50
2018,04,26,03,34,8.50
2018,04,26,03,35,8.50
2018,04,26,03,36,8.40
2018,04,26,03,37,8.40
2018,04,26,03,38,8.40
2018,04,26,03,39,8.40
2018,04,26,03,40,8.40
2018,04,26,03,41,8.40
2018,04,26,03,42,8.30
2018,04,26,03,43,8.30
2018,04,26,03,44,8.30
2018,04,26,03,45,8.30
2018,04,26,03,46,8.30
2018,04,26,03,47,8.30
2018,04,26,03,48,8.40
2018,04,26,03,49,8.30
2018,04,26,03,50,8.30
2018,04,26,03,51,8.30
2018,04,26,03,52,8.40
2018,04,26,03,53,8.40
2018,04,26,03,54,8.40
2018,04,26,03,55,8.50
2018,04,26,03,56,8.50
2018,04,26,03,57,8.50
2018,04,26,03,58,8.50
2018,04,26,03,59,8.60
2018,04,26,04,00,8.60
2018,04,26,04,01,8.60
2018,04,26,04,02,8.60
2018,04,26,04,03,8.60
2018,04,26,04,04,8.50
2018,04,26,04,05,8.50
2018,04,26,04,06,8.50
2018,04,26,04,07,8.40
2018,04,26,04,08,8.40
2018,04,26,04,09,8.40
2018,04,26,04,10,8.30
2018,04,26,04,11,8.30
2018,04,26,04,12,8.30
2018,04,26,04,13,8.30
2018,04,26,04,14,8.40
2018,04,26,04,15,8.30
2018,04,26,04,16,8.30
2018,04,26,04,17,8.30
2018,04,26,04,18,8.30
2018,04,26,04,19,8.30
2018,04,26,04,20,8.30
2018,04,26,04,21,8.30
2018,04,26,04,22,8.30
2018,04,26,04,23,8.20
2018,04,26,04,24,8.20
2018,04,26,04,25,8.20
2018,04,26,04,26,8.20
2018,04,26,04,27,8.20
2018,04,26,04,28,8.20
2018,04,26,04,29,8.10
2018,04,26,04,30,8.10
2018,04,26,04,31,8.10
2018,04,26,04,32,8.10
2018,04,26,04,33,8.10
2018,04,26,04,34,8.10
2018,04,26,04,35,8.10
2018,04,26,04,36,8.10
2018,04,26,04,37,8.10
2018,04,26,04,38,8.10
2018,04,26,04,39,8.10
2018,04,26,04,40,8.10
2018,04,26,04,41,8.10
2018,04,26,04,42,8.10
2018,04,26,04,43,8.10
2018,04,26,04,44,8.10
2018,04,26,04,45,8.10
2018,04,26,04,46,8.20
2018,04,26,04,47,8.20
2018,04,26,04,48,8.20
2018,04,26,04,49,8.20
2018,04,26,04,50,8.20
2018,04,26,04,51,8.20
2018,04,26,04,52,8.20
2018,04,26,04,53,8.20
2018,04,26,04,54,8.20
2018,04,26,04,55,8.30
2018,04,26,04,56,8.30
2018,04,26,04,57,8.30
2018,04,26,04,58,8.30
2018,04,26,04,59,8.30
2018,04,26,05,00,8.30
2018,04,26,05,01,8.30
2018,04,26,05,02,8.20
2018,04,26,05,03,8.20
2018,04,26,05,04,8.20
2018,04,26,05,05,8.10
2018,04,26,05,06,8.10
2018,04,26,05,07,8.00
2018,04,26,05,08,8.00
2018,04,26,05,09,8.00
2018,04,26,05,10,7.90
2018,04,26,05,11,7.90
2018,04,26,05,12,7.80
2018,04,26,05,13,7.80
2018,04,26,05,14,7.80
2018,04,26,05,15,7.70
2018,04,26,05,16,7.70
2018,04,26,05,17,7.70
2018,04,26,05,18,7.70
2018,04,26,05,19,7.70
2018,04,26,05,20,7.60
2018,04,26,05,21,7.60
2018,04,26,05,22,7.60
2018,04,26,05,23,7.60
2018,04,26,05,24,7.50
2018,04,26,05,25,7.50
2018,04,26,05,26,7.50
2018,04,26,05,27,7.50
2018,04,26,05,28,7.50
2018,04,26,05,29,7.50
2018,04,26,05,30,7.50
2018,04,26,05,31,7.40
2018,04,26,05,32,7.40
2018,04,26,05,33,7.40
2018,04,26,05,34,7.40
2018,04,26,05,35,7.40
2018,04,26,05,36,7.40
2018,04,26,05,37,7.40
2018,04,26,05,38,7.40
2018,04,26,05,39,7.40
2018,04,26,05,40,7.30
2018,04,26,05,41,7.30
2018,04,26,05,42,7.30
2018,04,26,05,43,7.30
2018,04,26,05,44,7.30
2018,04,26,05,45,7.30
2018,04,26,05,46,7.30
2018,04,26,05,47,7.30
2018,04,26,05,48,7.30
2018,04,26,05,49,7.40
2018,04,26,05,50,7.50
2018,04,26,05,51,7.60
2018,04,26,05,52,7.80
2018,04,26,05,53,8.00
2018,04,26,05,54,8.10
2018,04,26,05,55,8.30
2018,04,26,05,56,8.40
2018,04,26,05,57,8.60
2018,04,26,05,58,8.90
2018,04,26,05,59,9.10
2018,04,26,06,00,9.20
2018,04,26,06,01,9.40
2018,04,26,06,02,9.50
2018,04,26,06,03,9.70
2018,04,26,06,04,9.80
2018,04,26,06,05,9.90
2018,04,26,06,06,10.00
2018,04,26,06,07,10.20
2018,04,26,06,08,10.30
2018,04,26,06,09,10.40
2018,04,26,06,10,10.40
2018,04,26,06,11,10.50
2018,04,26,06,12,10.70
2018,04,26,06,13,10.90
2018,04,26,06,14,11.00
2018,04,26,06,15,11.10
2018,04,26,06,16,11.10
2018,04,26,06,17,11.20
2018,04,26,06,18,11.30
2018,04,26,06,19,11.40
2018,04,26,06,20,11.50
2018,04,26,06,21,11.60
2018,04,26,06,22,11.70
2018,04,26,06,23,11.80
2018,04,26,06,24,11.90
2018,04,26,06,25,11.80
2018,04,26,06,26,11.70
2018,04,26,06,27,11.60
2018,04,26,06,28,11.50
2018,04,26,06,29,11.40
2018,04,26,06,30,11.30
2018,04,26,06,31,11.20
2018,04,26,06,32,11.20
2018,04,26,06,33,11.10
2018,04,26,06,34,11.10
2018,04,26,06,35,11.00
2018,04,26,06,36,10.90
2018,04,26,06,37,10.70
2018,04,26,06,38,10.70
2018,04,26,06,39,10.70
2018,04,26,06,40,10.70
2018,04,26,06,41,10.90
2018,04,26,06,42,11.00
2018,04,26,06,43,11.20
2018,04,26,06,44,11.30
2018,04,26,06,45,11.50
2018,04,26,06,46,11.60
2018,04,26,06,47,11.70
2018,04,26,06,48,11.80
2018,04,26,06,49,11.90
2018,04,26,06,50,11.90
2018,04,26,06,51,12.00
2018,04,26,06,52,12.10
2018,04,26,06,53,12.20
2018,04,26,06,54,12.20
2018,04,26,06,55,12.20
2018,04,26,06,56,12.20
2018,04,26,06,57,12.20
2018,04,26,06,58,12.20
2018,04,26,06,59,12.20
2018,04,26,07,00,12.20
2018,04,26,07,01,12.20
2018,04,26,07,02,12.20
2018,04,26,07,03,12.20
2018,04,26,07,04,12.20
2018,04,26,07,05,12.30
2018,04,26,07,06,12.30
2018,04,26,07,07,12.30
2018,04,26,07,08,12.30
2018,04,26,07,09,12.30
2018,04,26,07,10,12.40
2018,04,26,07,11,12.40
2018,04,26,07,12,12.50
2018,04,26,07,13,12.60
2018,04,26,07,14,12.70
2018,04,26,07,15,12.80
2018,04,26,07,16,12.90
2018,04,26,07,17,12.90
2018,04,26,07,18,13.00
2018,04,26,07,19,13.10
2018,04,26,07,20,13.30
2018,04,26,07,21,13.40
2018,04,26,07,22,13.50
2018,04,26,07,23,13.50
2018,04,26,07,24,13.60
2018,04,26,07,25,13.80
2018,04,26,07,26,13.90
2018,04,26,07,27,14.00
2018,04,26,07,28,14.10
2018,04,26,07,29,14.20
2018,04,26,07,30,14.30
2018,04,26,07,31,14.40
2018,04,26,07,32,14.40
2018,04,26,07,33,14.40
2018,04,26,07,34,14.40
2018,04,26,07,35,14.40
2018,04,26,07,36,14.40
2018,04,26,07,37,14.40
2018,04,26,07,38,14.40
2018,04,26,07,39,14.40
2018,04,26,07,40,14.40
2018,04,26,07,41,14.40
2018,04,26,07,42,14.40
2018,04,26,07,43,14.40
2018,04,26,07,44,14.40
2018,04,26,07,45,14.50
2018,04,26,07,46,14.50
2018,04,26,07,47,14.50
2018,04,26,07,48,14.50
2018,04,26,07,49,14.40
2018,04,26,07,50,14.40
2018,04,26,07,51,14.50
2018,04,26,07,52,14.50
2018,04,26,07,53,14.50
2018,04,26,07,54,14.60
2018,04,26,07,55,14.60
2018,04,26,07,56,14.60
2018,04,26,07,57,14.70
2018,04,26,07,58,14.70
2018,04,26,07,59,14.80
2018,04,26,08,00,14.80
2018,04,26,08,01,14.90
2018,04,26,08,02,15.00
2018,04,26,08,03,15.00
2018,04,26,08,04,15.10
2018,04,26,08,05,15.10
2018,04,26,08,06,15.10
2018,04,26,08,07,15.10
2018,04,26,08,08,15.20
2018,04,26,08,09,15.20
2018,04,26,08,10,15.20
2018,04,26,08,11,15.30
2018,04,26,08,12,15.40
2018,04,26,08,13,15.50
2018,04,26,08,14,15.50
2018,04,26,08,15,15.60
2018,04,26,08,16,15.70
2018,04,26,08,17,15.70
2018,04,26,08,18,15.80
2018,04,26,08,19,15.80
2018,04,26,08,20,15.90
2018,04,26,08,21,15.90
2018,04,26,08,22,16.00
2018,04,26,08,23,16.10
2018,04,26,08,24,16.10
2018,04,26,08,25,16.20
2018,04,26,08,26,16.20
2018,04,26,08,27,16.30
2018,04,26,08,28,16.40
2018,04,26,08,29,16.50
2018,04,26,08,30,16.60
2018,04,26,08,31,16.60
2018,04,26,08,32,16.70
2018,04,26,08,33,16.70
2018,04,26,08,34,16.70
2018,04,26,08,35,16.80
2018,04,26,08,36,16.80
2018,04,26,08,37,16.90
2018,04,26,08,38,16.90
2018,04,26,08,39,17.00
2018,04,26,08,40,17.10
2018,04,26,08,41,17.10
2018,04,26,08,42,17.10
2018,04,26,08,43,17.20
2018,04,26,08,44,17.30
2018,04,26,08,45,17.30
2018,04,26,08,46,17.40
2018,04,26,08,47,17.50
2018,04,26,08,48,17.50
2018,04,26,08,49,17.70
2018,04,26,08,50,17.80
2018,04,26,08,51,17.90
2018,04,26,08,52,18.00
2018,04,26,08,53,18.10
2018,04,26,08,54,18.20
2018,04,26,08,55,18.30
2018,04,26,08,56,18.40
2018,04,26,08,57,18.50
2018,04,26,08,58,18.60
2018,04,26,08,59,18.70
2018,04,26,09,00,18.70
2018,04,26,09,01,18.80
2018,04,26,09,02,18.90
2018,04,26,09,03,18.90
2018,04,26,09,04,19.00
2018,04,26,09,05,19.00
2018,04,26,09,06,19.00
2018,04,26,09,07,18.90
2018,04,26,09,08,18.90
2018,04,26,09,09,18.90
2018,04,26,09,10,18.90
2018,04,26,09,11,18.90
2018,04,26,09,12,18.90
2018,04,26,09,13,18.90
2018,04,26,09,14,18.80
2018,04,26,09,15,18.80
2018,04,26,09,16,18.80
2018,04,26,09,17,18.80
2018,04,26,09,18,18.80
2018,04,26,09,19,18.80
2018,04,26,09,20,18.80
2018,04,26,09,21,18.90
2018,04,26,09,22,18.90
2018,04,26,09,23,18.90
2018,04,26,09,24,19.00
2018,04,26,09,25,19.00
2018,04,26,09,26,19.10
2018,04,26,09,27,19.10
2018,04,26,09,28,19.10
2018,04,26,09,29,19.20
2018,04,26,09,30,19.20
2018,04,26,09,31,19.30
2018,04,26,09,32,19.40
2018,04,26,09,33,19.50
2018,04,26,09,34,19.60
2018,04,26,09,35,19.60
2018,04,26,09,36,19.60
2018,04,26,09,37,19.60
2018,04,26,09,38,19.60
2018,04,26,09,39,19.70
2018,04,26,09,40,19.70
2018,04,26,09,41,19.80
2018,04,26,09,42,19.80
2018,04,26,09,43,19.80
2018,04,26,09,44,19.80
2018,04,26,09,45,19.90
2018,04,26,09,46,20.00
2018,04,26,09,47,20.00
2018,04,26,09,48,20.00
2018,04,26,09,49,20.00
2018,04,26,09,50,20.10
2018,04,26,09,51,20.10
2018,04,26,09,52,20.10
2018,04,26,09,53,20.20
2018,04,26,09,54,20.20
2018,04,26,09,55,20.20
2018,04,26,09,56,20.20
2018,04,26,09,57,20.20
2018,04,26,09,58,20.30
2018,04,26,09,59,20.30
2018,04,26,10,00,20.30
2018,04,26,10,01,20.30
2018,04,26,10,02,20.40
2018,04,26,10,03,20.40
2018,04,26,10,04,20.40
2018,04,26,10,05,20.30
2018,04,26,10,06,20.30
2018,04,26,10,07,20.30
2018,04,26,10,08,20.30
2018,04,26,10,09,20.30
2018,04,26,10,10,20.40
2018,04,26,10,11,20.40
2018,04,26,10,12,20.40
2018,04,26,10,13,20.40
2018,04,26,10,14,20.40
2018,04,26,10,15,20.40
2018,04,26,10,16,20.50
2018,04,26,10,17,20.50
2018,04,26,10,18,20.60
2018,04,26,10,19,20.70
2018,04,26,10,20,20.80
2018,04,26,10,21,20.90
2018,04,26,10,22,21.10
2018,04,26,10,23,21.10
2018,04,26,10,24,21.00
2018,04,26,10,25,20.90
2018,04,26,10,26,20.90
2018,04,26,10,27,20.90
2018,04,26,10,28,21.00
2018,04,26,10,29,21.10
2018,04,26,10,30,21.10
2018,04,26,10,31,21.00
2018,04,26,10,32,20.90
2018,04,26,10,33,20.90
2018,04,26,10,34,20.90
2018,04,26,10,35,20.90
2018,04,26,10,36,20.90
2018,04,26,10,37,21.00
2018,04,26,10,38,21.00
2018,04,26,10,39,21.10
2018,04,26,10,40,21.10
2018,04,26,10,41,21.10
2018,04,26,10,42,21.00
2018,04,26,10,43,21.00
2018,04,26,10,44,21.00
2018,04,26,10,45,21.00
2018,04,26,10,46,21.10
2018,04,26,10,47,21.10
2018,04,26,10,48,21.00
2018,04,26,10,49,21.00
2018,04,26,10,50,20.90
2018,04,26,10,51,20.90
2018,04,26,10,52,21.00
2018,04,26,10,53,21.10
2018,04,26,10,54,21.20
2018,04,26,10,55,21.30
2018,04,26,10,56,21.30
2018,04,26,10,57,21.40
2018,04,26,10,58,21.50
2018,04,26,10,59,21.60
2018,04,26,11,00,21.60
2018,04,26,11,01,21.70
2018,04,26,11,02,21.80
2018,04,26,11,03,22.00
2018,04,26,11,04,22.00
2018,04,26,11,05,22.10
2018,04,26,11,06,21.90
2018,04,26,11,07,21.80
2018,04,26,11,08,21.70
2018,04,26,11,09,21.60
2018,04,26,11,10,21.50
2018,04,26,11,11,21.50
2018,04,26,11,12,21.40
2018,04,26,11,13,21.40
2018,04,26,11,14,21.50
2018,04,26,11,15,21.50
2018,04,26,11,16,21.40
2018,04,26,11,17,21.40
2018,04,26,11,18,21.40
2018,04,26,11,19,21.40
2018,04,26,11,20,21.40
2018,04,26,11,21,21.40
2018,04,26,11,22,21.40
2018,04,26,11,23,21.50
2018,04,26,11,24,21.60
2018,04,26,11,25,21.50
2018,04,26,11,26,21.50
2018,04,26,11,27,21.50
2018,04,26,11,28,21.50
2018,04,26,11,29,21.50
2018,04,26,11,30,21.60
2018,04,26,11,31,21.70
2018,04,26,11,32,21.70
2018,04,26,11,33,21.80
2018,04,26,11,34,21.80
2018,04,26,11,35,21.90
2018,04,26,11,36,21.90
2018,04,26,11,37,21.80
2018,04,26,11,38,21.80
2018,04,26,11,39,21.90
2018,04,26,11,40,22.00
2018,04,26,11,41,22.10
2018,04,26,11,42,22.20
2018,04,26,11,43,22.20
2018,04,26,11,44,22.30
2018,04,26,11,45,22.30
2018,04,26,11,46,22.40
2018,04,26,11,47,22.40
2018,04,26,11,48,22.50
2018,04,26,11,49,22.60
2018,04,26,11,50,22.70
2018,04,26,11,51,22.70
2018,04,26,11,52,22.70
2018,04,26,11,53,22.60
2018,04,26,11,54,22.60
2018,04,26,11,55,22.60
2018,04,26,11,56,22.60
2018,04,26,11,57,22.60
2018,04,26,11,58,22.60
2018,04,26,11,59,22.60
2018,04,26,12,00,22.50
2018,04,26,12,01,22.40
2018,04,26,12,02,22.30
2018,04,26,12,03,22.20
2018,04,26,12,04,22.20
2018,04,26,12,05,22.20
2018,04,26,12,06,22.30
2018,04,26,12,07,22.40
2018,04,26,12,08,22.40
2018,04,26,12,09,22.50
2018,04,26,12,10,22.50
2018,04,26,12,11,22.50
2018,04,26,12,12,22.60
2018,04,26,12,13,22.60
2018,04,26,12,14,22.70
2018,04,26,12,15,22.80
2018,04,26,12,16,22.80
2018,04,26,12,17,22.80
2018,04,26,12,18,22.70
2018,04,26,12,19,22.60
2018,04,26,12,20,22.60
2018,04,26,12,21,22.60
2018,04,26,12,22,22.60
2018,04,26,12,23,22.60
2018,04,26,12,24,22.60
2018,04,26,12,25,22.60
2018,04,26,12,26,22.60
2018,04,26,12,27,22.60
2018,04,26,12,28,22.70
2018,04,26,12,29,22.70
2018,04,26,12,30,22.90
2018,04,26,12,31,22.90
2018,04,26,12,32,22.90
2018,04,26,12,33,22.80
2018,04,26,12,34,22.80
2018,04,26,12,35,22.80
2018,04,26,12,36,22.80
2018,04,26,12,37,22.80
2018,04,26,12,38,22.80
2018,04,26,12,39,22.70
2018,04,26,12,40,22.60
2018,04,26,12,41,22.50
2018,04,26,12,42,22.50
2018,04,26,12,43,22.50
2018,04,26,12,44,22.50
2018,04,26,12,45,22.60
2018,04,26,12,46,22.60
2018,04,26,12,47,22.60
2018,04,26,12,48,22.60
2018,04,26,12,49,22.60
2018,04,26,12,50,22.70
2018,04,26,12,51,22.70
2018,04,26,12,52,22.60
2018,04,26,12,53,22.60
2018,04,26,12,54,22.60
2018,04,26,12,55,22.50
2018,04,26,12,56,22.50
2018,04,26,12,57,22.50
2018,04,26,12,58,22.60
2018,04,26,12,59,22.60
2018,04,26,13,00,22.70
2018,04,26,13,01,22.80
2018,04,26,13,02,22.80
2018,04,26,13,03,22.80
2018,04,26,13,04,22.80
2018,04,26,13,05,22.80
2018,04,26,13,06,22.80
2018,04,26,13,07,22.80
2018,04,26,13,08,22.80
2018,04,26,13,09,22.80
2018,04,26,13,10,22.70
2018,04,26,13,11,22.70
2018,04,26,13,12,22.80
2018,04,26,13,13,22.80
2018,04,26,13,14,22.90
2018,04,26,13,15,22.90
2018,04,26,13,16,22.90
2018,04,26,13,17,22.90
2018,04,26,13,18,22.90
2018,04,26,13,19,22.90
2018,04,26,13,20,22.90
2018,04,26,13,21,22.90
2018,04,26,13,22,22.90
2018,04,26,13,23,22.90
2018,04,26,13,24,23.00
2018,04,26,13,25,23.10
2018,04,26,13,26,23.20
2018,04,26,13,27,23.20
2018,04,26,13,28,23.30
2018,04,26,13,29,23.40
2018,04,26,13,30,23.50
2018,04,26,13,31,23.60
2018,04,26,13,32,23.70
2018,04,26,13,33,23.70
2018,04,26,13,34,23.70
2018,04,26,13,35,23.70
2018,04,26,13,36,23.70
2018,04,26,13,37,23.70
2018,04,26,13,38,23.60
2018,04,26,13,39,23.50
2018,04,26,13,40,23.50
2018,04,26,13,41,23.40
2018,04,26,13,42,23.40
2018,04,26,13,43,23.40
2018,04,26,13,44,23.30
2018,04,26,13,45,23.20
2018,04,26,13,46,23.10
2018,04,26,13,47,23.10
2018,04,26,13,48,23.30
2018,04,26,13,49,23.30
2018,04,26,13,50,23.40
2018,04,26,13,51,23.60
2018,04,26,13,52,23.60
2018,04,26,13,53,23.40
2018,04,26,13,54,23.40
2018,04,26,13,55,23.30
2018,04,26,13,56,23.30
2018,04,26,13,57,23.30
2018,04,26,13,58,23.40
2018,04,26,13,59,23.40
2018,04,26,14,00,23.50
2018,04,26,14,01,23.60
2018,04,26,14,02,23.70
2018,04,26,14,03,23.80
2018,04,26,14,04,23.90
2018,04,26,14,05,23.80
2018,04,26,14,06,23.80
2018,04,26,14,07,23.80
2018,04,26,14,08,23.90
2018,04,26,14,09,23.90
2018,04,26,14,10,24.00
2018,04,26,14,11,24.10
2018,04,26,14,12,24.00
2018,04,26,14,13,24.00
2018,04,26,14,14,24.00
2018,04,26,14,15,24.10
2018,04,26,14,16,24.20
2018,04,26,14,17,24.30
2018,04,26,14,18,24.40
2018,04,26,14,19,24.50
2018,04,26,14,20,24.40
2018,04,26,14,21,24.20
2018,04,26,14,22,24.10
2018,04,26,14,23,24.00
2018,04,26,14,24,24.10
2018,04,26,14,25,24.20
2018,04,26,14,26,24.20
2018,04,26,14,27,24.30
2018,04,26,14,28,24.20
2018,04,26,14,29,24.20
2018,04,26,14,30,24.20
2018,04,26,14,31,24.10
2018,04,26,14,32,24.10
2018,04,26,14,33,24.10
2018,04,26,14,34,24.20
2018,04,26,14,35,24.30
2018,04,26,14,36,24.50
2018,04,26,14,37,24.60
2018,04,26,14,38,24.60
2018,04,26,14,39,24.70
2018,04,26,14,40,24.80
2018,04,26,14,41,24.80
2018,04,26,14,42,24.80
2018,04,26,14,43,24.70
2018,04,26,14,44,24.70
2018,04,26,14,45,24.80
2018,04,26,14,46,24.80
2018,04,26,14,47,24.70
2018,04,26,14,48,24.60
2018,04,26,14,49,24.60
2018,04,26,14,50,24.60
2018,04,26,14,51,24.70
2018,04,26,14,52,24.70
2018,04,26,14,53,24.70
2018,04,26,14,54,24.80
2018,04,26,14,55,24.90
2018,04,26,14,56,25.00
2018,04,26,14,57,25.10
2018,04,26,14,58,25.20
2018,04,26,14,59,25.20
2018,04,26,15,00,25.30
2018,04,26,15,01,25.10
2018,04,26,15,02,24.90
2018,04,26,15,03,24.60
2018,04,26,15,04,24.40
2018,04,26,15,05,24.30
2018,04,26,15,06,24.20
2018,04,26,15,07,24.20
2018,04,26,15,08,24.20
2018,04,26,15,09,24.30
2018,04,26,15,10,24.30
2018,04,26,15,11,24.30
2018,04,26,15,12,24.30
2018,04,26,15,13,24.30
2018,04,26,15,14,24.20
2018,04,26,15,15,24.10
2018,04,26,15,16,24.10
2018,04,26,15,17,24.20
2018,04,26,15,18,24.30
2018,04,26,15,19,24.40
2018,04,26,15,20,24.40
2018,04,26,15,21,24.50
2018,04,26,15,22,24.50
2018,04,26,15,23,24.60
2018,04,26,15,24,24.70
2018,04,26,15,25,24.60
2018,04,26,15,26,24.60
2018,04,26,15,27,24.60
2018,04,26,15,28,24.60
2018,04,26,15,29,24.70
2018,04,26,15,30,24.80
2018,04,26,15,31,24.80
2018,04,26,15,32,24.70
2018,04,26,15,33,24.70
2018,04,26,15,34,24.80
2018,04,26,15,35,24.90
2018,04,26,15,36,25.00
2018,04,26,15,37,25.00
2018,04,26,15,38,24.90
2018,04,26,15,39,24.80
2018,04,26,15,40,24.80
2018,04,26,15,41,24.80
2018,04,26,15,42,24.80
2018,04,26,15,43,24.60
2018,04,26,15,44,24.50
2018,04,26,15,45,24.30
2018,04,26,15,46,24.30
2018,04,26,15,47,24.30
2018,04,26,15,48,24.40
2018,04,26,15,49,24.30
2018,04,26,15,50,24.30
2018,04,26,15,51,24.30
2018,04,26,15,52,24.30
2018,04,26,15,53,24.30
2018,04,26,15,54,24.20
2018,04,26,15,55,24.20
2018,04,26,15,56,24.20
2018,04,26,15,57,24.30
2018,04,26,15,58,24.30
2018,04,26,15,59,24.40
2018,04,26,16,00,24.50
2018,04,26,16,01,24.50
2018,04,26,16,02,24.60
2018,04,26,16,03,24.60
2018,04,26,16,04,24.50
2018,04,26,16,05,24.30
2018,04,26,16,06,24.20
2018,04,26,16,07,24.20
2018,04,26,16,08,24.30
2018,04,26,16,09,24.30
2018,04,26,16,10,24.40
2018,04,26,16,11,24.30
2018,04,26,16,12,24.30
2018,04,26,16,13,24.30
2018,04,26,16,14,24.40
2018,04,26,16,15,24.60
2018,04,26,16,16,24.70
2018,04,26,16,17,24.80
2018,04,26,16,18,24.70
2018,04,26,16,19,24.70
2018,04,26,16,20,24.60
2018,04,26,16,21,24.50
2018,04,26,16,22,24.40
2018,04,26,16,23,24.30
2018,04,26,16,24,24.30
2018,04,26,16,25,24.40
2018,04,26,16,26,24.40
2018,04,26,16,27,24.40
2018,04,26,16,28,24.30
2018,04,26,16,29,24.30
2018,04,26,16,30,24.30
2018,04,26,16,31,24.30
2018,04,26,16,32,24.30
2018,04,26,16,33,24.30
2018,04,26,16,34,24.30
2018,04,26,16,35,24.40
2018,04,26,16,36,24.40
2018,04,26,16,37,24.40
2018,04,26,16,38,24.40
2018,04,26,16,39,24.40
2018,04,26,16,40,24.50
2018,04,26,16,41,24.60
2018,04,26,16,42,24.50
2018,04,26,16,43,24.50
2018,04,26,16,44,24.50
2018,04,26,16,45,24.50
2018,04,26,16,46,24.40
2018,04,26,16,47,24.30
2018,04,26,16,48,24.30
2018,04,26,16,49,24.30
2018,04,26,16,50,24.30
2018,04,26,16,51,24.30
2018,04,26,16,52,24.30
2018,04,26,16,53,24.30
2018,04,26,16,54,24.40
2018,04,26,16,55,24.50
2018,04,26,16,56,24.50
2018,04,26,16,57,24.50
2018,04,26,16,58,24.50
2018,04,26,16,59,24.50
2018,04,26,17,00,24.50
2018,04,26,17,01,24.60
2018,04,26,17,02,24.60
2018,04,26,17,03,24.70
2018,04,26,17,04,24.90
2018,04,26,17,05,25.10
2018,04,26,17,06,25.20
2018,04,26,17,07,25.30
2018,04,26,17,08,25.20
2018,04,26,17,09,25.00
2018,04,26,17,10,24.60
2018,04,26,17,11,24.20
2018,04,26,17,12,23.70
2018,04,26,17,13,23.10
2018,04,26,17,14,22.60
2018,04,26,17,15,22.20
2018,04,26,17,16,21.80
2018,04,26,17,17,21.50
2018,04,26,17,18,21.20
2018,04,26,17,19,21.00
2018,04,26,17,20,20.80
2018,04,26,17,21,20.60
2018,04,26,17,22,20.40
2018,04,26,17,23,20.30
2018,04,26,17,24,20.20
2018,04,26,17,25,20.20
2018,04,26,17,26,20.20
2018,04,26,17,27,20.20
2018,04,26,17,28,20.10
2018,04,26,17,29,20.10
2018,04,26,17,30,20.10
2018,04,26,17,31,20.00